Tracking 23731 objects as of 26-Sep-2021
HD Live streaming from Space Station
objects crossing your sky now

NSS 5 (INTELSAT 803)

Track NSS 5 (INTELSAT 803) now!
NSS 5 (INTELSAT 803) is classified as:


NORAD ID: 24957
Int'l Code: 1997-053A
Perigee: 35,778.3 km
Apogee: 35,810.1 km
Inclination: 6.9 °
Period: 1,436.1 minutes
Semi major axis: 42165 km
RCS: 25.1188 m2 (large)
Launch date: September 23, 1997
Source: Netherlands (NETH)
Launch site: FRENCH GUIANA (FRGUI)

38 C-band, 6 Ku-band; Pacific Ocean region; shared capacity with Intelset.
aabbcc
Your satellite tracking list
Your tracking list is empty




NASA's NSSDC Master Catalog

Two Line Element Set (TLE):
1 24957U 97053A   21269.05570167  .00000104  00000-0  00000+0 0  9996
2 24957   6.9057  61.0514 0003765 116.7663 257.8220  1.00270137 87949
Source of the keplerian elements: AFSPC